RH
39 49 51 51 56 54 69 55 70 74 72 70 66 62 49 41 45 50 48 51 49 47 43 42 43 45 47 49 54 60 58 57 62 62 61 63 65 66 65 66 67 69 76 76
58 54 44 46 53 52 46 44 58 44 59 53 33 40 50 45 43 43 45 49 48 42 39 41 41 44 47 50 54 60 59 60 61 61 59 63 64 66 62 65 67 70 74 76
45 42 48 61 68 55 52 48 40 48 71 47 45 39 41 43 44 43 47 48 46 39 37 39 41 46 48 50 56 60 60 59 61 61 60 61 61 63 66 66 65 71 72 71
52 40 55 40 38 45 47 43 40 34 33 34 30 35 36 39 42 46 46 46 43 38 39 40 43 47 51 48 58 61 60 60 59 59 57 57 58 63 64 59 63 65 67 71
63 45 32 30 46 51 51 33 39 35 30 33 38 39 37 43 40 40 44 42 39 38 41 42 44 46 46 50 58 58 60 55 56 58 55 57 59 64 63 56 55 60 60 65
70 48 44 28 31 43 37 46 29 35 33 36 40 37 30 43 45 46 41 35 34 36 38 40 47 48 48 52 59 60 58 55 54 56 57 58 61 63 62 54 51 60 59 62
80 68 49 36 36 41 35 39 30 38 37 41 39 28 38 41 46 42 34 32 36 36 37 40 45 48 51 55 61 61 53 53 53 51 54 56 58 60 62 58 56 63 57 59
69 68 66 39 40 38 45 38 36 46 47 47 44 46 47 41 41 36 33 35 34 38 39 43 44 45 48 56 64 54 51 52 52 52 50 51 56 59 60 57 62 63 57 60
60 70 51 46 40 36 37 35 36 43 47 48 49 45 43 42 39 34 31 33 34 36 42 45 45 44 50 59 60 56 53 55 57 59 56 54 59 61 68 61 66 63 62 66
52 45 45 50 42 41 32 31 29 31 45 47 46 46 44 42 40 35 31 33 35 39 42 47 49 49 51 56 57 53 51 55 58 61 66 60 62 59 64 70 68 63 65 69
52 46 45 41 43 37 37 35 32 38 44 45 45 46 43 43 40 35 33 36 38 39 42 45 50 52 54 55 53 49 52 55 59 62 61 64 59 61 62 63 71 70 72 69
54 46 42 34 37 41 38 37 32 38 46 46 41 43 41 40 39 36 36 38 41 42 43 48 50 54 56 56 47 50 52 55 59 58 60 63 61 62 73 72 73 72 71 72
34 37 40 36 38 42 35 35 34 39 37 43 43 40 40 40 43 47 37 39 41 45 46 52 54 56 53 53 51 53 51 56 58 58 56 62 64 64 68 67 69 72 70 71
36 39 37 36 28 44 37 32 41 32 35 39 40 41 46 43 48 41 40 38 42 48 53 55 56 57 54 55 52 56 58 82 58 61 64 66 67 75 76 80 83 82 68 68
38 33 28 30 34 43 38 36 37 35 39 44 44 47 50 51 50 48 46 46 48 53 65 83 60 59 57 58 56 65 69 74 71 73 75 76 75 77 77 76 77 77 68 64
40 38 35 34 33 42 42 39 36 37 44 44 48 52 51 52 84 63 51 52 57 61 67 70 71 69 67 62 68 83 79 79 77 73 76 74 74 74 75 74 74 72 70 69
48 50 51 45 40 45 48 42 36 38 43 49 49 49 53 77 71 61 56 56 58 69 66 66 78 74 82 69 82 85 87 78 75 68 70 69 72 72 73 74 75 73 75 76
36 40 44 41 40 47 52 54 47 45 49 48 54 66 83 79 75 64 63 61 64 78 63 63 67 74 74 68 66 74 81 72 69 70 70 74 71 69 72 71 71 71 72 70
39 36 43 46 44 44 46 49 53 53 71 74 84 79 80 81 79 72 71 77 80 66 64 65 83 72 63 67 69 71 74 73 67 66 68 78 74 71 73 73 73 75 72 72
44 42 43 48 53 52 46 52 57 60 66 80 88 87 87 89 86 84 69 62 57 56 59 66 68 64 62 70 82 72 77 76 71 73 77 74 78 82 76 77 72 79 84 81
52 47 47 53 58 69 75 72 76 67 86 85 83 83 82 84 84 82 67 58 56 69 67 78 67 66 64 66 70 75 79 84 85 81 83 85 87 79 80 82 83 85 86 83
62 58 67 64 60 67 69 67 59 86 84 86 88 88 87 80 84 71 72 54 70 85 77 71 69 72 65 81 64 79 75 74 77 82 86 88 88 88 88 88 88 87 86 86
61 58 57 68 65 55 64 67 85 77 83 85 84 79 72 72 69 69 65 61 67 77 69 73 78 88 88 86 84 90 86 87 87 87 89 89 89 88 86 86 86 86 87 86
61 57 55 63 62 61 62 65 65 66 84 73 81 86 69 77 78 70 70 79 81 87 84 83 91 88 88 96 98 99 97 98 96 98 89 88 91 89 87 87 86 86 85 88
60 61 64 64 58 61 61 66 65 65 66 66 66 69 69 66 78 73 80 80 84 79 82 90 88 89 98 100 100 100 99 99 100 98 93 92 89 90 88 87 87 87 87 86
61 61 60 58 58 62 66 64 65 67 66 76 78 79 77 74 75 76 78 84 78 80 86 100 99 98 100 96 100 99 97 88 92 89 93 88 88 86 88 86 87 88 88 86
71 79 69 70 65 68 68 69 72 75 77 80 78 80 80 83 85 79 86 98 97 99 100 100 100 93 96 100 97 96 94 94 92 89 92 93 88 88 88 88 88 87 88 89
Wind_Speed
3 3 4 6 11 17 10 7 8 2 9 5 6 11 12 11 8 8 9 9 9 8 7 5 4 4 2 4 5 5 5 7 9 10 10 10 11 11 12 12 12 13 13 12
2 3 4 4 9 15 17 11 12 5 15 15 5 4 8 10 10 11 10 10 9 9 8 6 5 3 3 4 5 4 5 7 8 9 10 10 11 12 12 12 12 13 13 12
2 0 3 8 14 17 11 10 12 14 10 6 3 10 11 10 11 11 10 10 11 10 8 7 6 5 4 4 4 5 5 7 8 9 9 11 11 11 12 13 12 13 14 14
3 1 3 3 3 13 17 7 18 10 8 7 5 5 6 8 11 11 10 9 10 10 8 7 6 6 6 5 5 5 5 7 8 8 9 10 11 11 11 11 12 11 13 14
4 4 8 5 6 9 11 9 25 25 14 7 5 3 4 8 10 11 10 8 10 10 10 8 7 7 6 5 5 6 6 7 7 8 9 10 11 11 10 10 12 11 11 14
3 3 5 3 2 7 5 7 3 22 17 16 11 7 7 12 11 9 9 11 12 11 10 9 8 7 6 5 6 6 5 6 6 7 8 9 10 11 8 10 11 9 10 13
2 2 9 6 5 7 4 4 3 13 15 18 13 6 2 12 9 10 13 14 13 12 10 9 9 7 6 6 6 6 5 5 6 7 8 9 9 9 9 10 11 11 11 12
4 3 10 7 7 7 2 1 1 6 12 15 8 7 9 11 14 15 15 14 12 11 9 9 8 7 6 6 7 6 6 6 6 7 6 6 9 9 9 10 11 11 12 11
10 8 2 8 3 6 1 2 3 5 8 12 11 9 13 13 15 14 15 13 11 11 10 8 8 6 6 7 7 6 5 5 4 5 5 7 8 9 8 10 10 10 10 10
1 4 13 11 8 7 5 3 3 3 10 14 12 12 12 13 13 12 12 13 12 11 11 9 8 6 6 8 7 6 5 4 3 4 5 6 6 6 7 8 9 9 9 10
6 9 7 13 15 14 14 5 4 5 8 13 13 14 14 12 13 12 12 11 12 11 10 10 9 8 8 8 7 6 5 4 3 3 4 4 6 7 7 9 9 8 9 8
9 9 3 4 5 15 14 14 10 10 8 9 12 14 13 13 13 12 12 12 11 10 10 11 10 9 8 8 7 7 5 3 2 2 3 3 3 4 10 10 12 14 14 11
5 4 6 2 2 10 17 16 13 12 12 15 11 12 15 11 13 11 12 13 13 13 11 12 11 10 8 8 8 7 5 5 3 2 3 3 3 4 4 5 9 12 14 14
9 6 4 6 4 9 12 15 15 12 10 12 14 12 11 11 11 13 14 14 13 12 12 12 11 10 10 9 9 8 6 4 4 3 3 3 3 3 3 4 5 6 9 11
14 16 7 2 6 5 7 11 13 12 11 10 10 12 13 12 13 13 12 13 13 12 11 10 12 12 12 11 10 9 7 5 5 4 4 4 3 3 3 4 4 5 5 6
8 11 12 9 9 9 11 13 14 13 12 11 12 13 14 11 7 11 13 14 15 14 15 14 13 13 13 12 11 8 7 8 6 5 5 4 3 3 3 3 3 4 5 6
5 4 8 11 10 10 14 14 15 14 12 12 15 13 11 9 9 11 13 13 10 11 14 14 12 12 11 11 11 8 7 7 7 5 5 5 4 3 3 2 3 3 4 4
13 7 11 10 13 11 9 10 11 12 13 16 11 11 11 13 14 14 13 12 10 7 11 11 11 12 12 12 11 8 7 7 7 6 6 6 5 4 4 3 3 2 3 3
16 15 11 11 12 12 10 11 11 12 8 10 12 14 14 11 10 11 13 12 11 12 12 12 12 14 14 13 11 8 8 9 8 7 6 6 6 5 4 4 3 3 2 2
13 11 10 11 9 11 12 8 9 9 8 9 7 9 9 9 12 13 15 17 17 8 13 14 15 14 14 13 12 9 9 9 9 7 7 7 6 6 5 4 3 3 3 2
14 14 15 13 11 9 8 8 10 10 9 10 13 13 13 11 11 13 13 10 13 10 13 16 13 10 10 11 11 9 9 9 8 8 8 7 7 6 6 6 5 4 4 3
8 10 9 9 9 8 6 7 9 8 10 9 7 9 11 12 11 12 7 9 8 14 10 10 11 14 11 14 10 10 10 10 9 7 7 7 7 7 7 7 6 5 5 4
8 8 8 9 9 8 8 7 6 10 11 11 12 12 13 10 11 12 10 9 9 12 10 9 12 15 14 11 9 9 9 9 9 8 8 8 8 7 7 7 7 6 6 6
7 8 8 7 8 8 9 7 9 8 6 7 7 7 13 10 6 4 3 11 9 14 10 9 12 16 15 9 8 8 8 8 8 7 8 8 7 7 7 7 7 7 6 6
8 8 8 10 9 6 8 9 9 8 9 9 9 10 9 7 4 9 7 8 12 13 9 9 13 15 10 8 8 8 8 8 7 7 8 8 8 8 8 8 8 8 8 7
9 7 6 6 6 7 8 8 7 7 7 7 5 6 6 5 4 7 7 7 9 9 8 7 8 8 8 8 8 9 8 9 8 9 8 9 9 9 9 9 9 9 8 8
6 6 7 5 4 6 7 7 8 8 6 6 6 7 7 6 5 7 8 7 7 7 6 7 7 9 8 8 9 9 8 8 9 9 9 8 9 9 9 9 9 9 8 8
Wind_Direction
117 137 165 180 182 185 203 183 204 266 218 263 229 209 210 216 213 210 216 208 192 180 164 147 116 89 96 42 30 37 31 18 16 10 13 13 13 13 15 19 20 20 20 7
115 155 215 233 203 200 215 228 255 259 278 218 224 228 201 212 205 214 217 211 192 167 156 154 133 129 101 53 40 67 40 25 19 17 15 14 15 15 16 18 21 23 22 11
168 210 247 272 214 191 197 206 208 217 224 171 185 214 218 210 201 207 205 194 176 161 159 154 138 150 107 79 68 77 47 25 20 17 17 17 14 14 15 16 19 25 23 17
124 160 240 246 154 198 210 213 213 228 207 197 212 193 222 206 194 198 192 181 157 148 151 142 140 134 116 91 89 82 47 22 17 16 16 12 14 16 14 16 18 21 24 19
157 213 299 240 186 169 187 260 210 222 200 191 177 126 235 193 202 192 182 162 146 147 146 144 146 134 123 97 109 83 45 26 24 18 16 12 12 13 14 11 17 16 21 23
160 195 237 252 187 169 183 280 206 211 196 182 157 208 216 175 179 160 155 139 137 142 140 146 141 139 125 109 115 90 57 46 37 28 24 22 16 12 8 19 16 16 18 20
124 239 280 240 136 153 180 259 350 190 187 174 191 196 95 151 154 151 144 136 137 147 151 150 146 144 125 120 118 110 94 75 52 42 38 28 26 20 11 17 16 18 19 19
118 208 267 150 110 198 241 289 96 159 174 183 165 142 148 157 144 144 138 137 148 145 149 148 151 148 135 124 134 124 111 95 69 45 41 30 28 27 24 20 17 17 14 17
192 212 236 208 209 215 244 235 172 171 176 168 159 167 163 154 148 151 148 147 154 149 148 151 157 159 143 137 142 136 131 103 76 56 37 32 31 28 30 21 20 18 14 11
158 223 229 230 228 229 217 245 190 183 166 171 168 165 163 150 151 154 153 155 152 152 156 156 161 155 137 147 147 145 140 118 78 47 34 33 37 31 31 28 20 18 16 13
262 273 264 259 233 222 210 199 170 155 171 175 162 172 166 161 162 163 158 151 158 165 163 159 157 150 147 148 151 145 141 127 88 42 38 47 46 32 34 40 28 18 18 15
215 211 201 237 230 196 194 191 196 169 151 173 178 165 170 170 166 164 160 155 161 163 161 156 157 153 152 156 157 153 148 143 101 76 46 55 53 67 64 50 46 40 34 23
229 186 204 270 268 190 191 180 184 187 171 171 180 167 172 164 168 165 159 161 166 169 167 159 157 156 157 159 162 164 151 143 129 114 86 76 63 47 42 62 58 44 36 31
214 141 225 214 241 180 189 182 175 183 179 179 171 171 167 156 151 168 176 172 160 159 160 160 160 165 164 161 164 162 153 139 141 129 117 112 86 69 55 35 25 27 37 29
215 211 226 160 177 162 164 155 170 180 175 167 171 172 170 164 172 180 165 157 153 155 153 155 171 172 168 167 167 166 161 156 150 139 138 126 121 100 78 56 40 29 23 32
212 214 215 216 202 178 175 182 184 187 180 174 175 180 190 184 146 156 158 158 158 173 170 176 180 171 168 171 169 165 165 154 156 151 149 149 144 124 105 76 58 45 34 18
145 213 203 218 209 184 195 189 193 188 181 179 190 188 162 135 136 155 169 175 168 161 171 174 178 163 163 172 170 169 164 161 159 159 161 162 160 149 135 121 92 74 60 37
200 196 197 205 199 186 195 194 194 181 185 195 174 155 149 161 176 176 170 161 154 154 178 178 163 162 170 175 178 173 172 169 173 171 165 169 171 162 159 153 134 118 95 79
198 198 193 199 194 195 192 189 187 190 169 153 147 178 181 182 163 154 152 157 163 174 194 173 157 167 176 178 177 177 179 177 175 174 176 164 174 173 171 175 166 153 129 86
204 198 197 193 179 182 197 189 177 173 164 151 128 134 154 152 151 154 165 179 187 182 156 166 168 178 181 173 174 182 183 184 181 178 179 184 183 182 180 182 181 175 172 152
204 200 200 182 186 182 189 168 159 169 165 156 166 178 180 157 153 154 162 182 193 164 160 162 173 179 179 173 180 187 185 185 185 183 183 190 183 188 184 184 188 190 191 195
183 188 179 170 173 180 173 171 173 137 156 158 118 123 133 153 157 177 184 196 154 158 159 171 180 178 177 169 184 188 189 191 191 188 190 189 190 190 190 188 192 194 196 197
171 178 162 157 171 175 145 166 147 155 158 162 160 162 169 168 166 163 189 191 163 170 170 177 175 168 163 177 183 186 190 189 192 195 195 192 195 195 193 193 195 194 193 195
158 155 150 127 129 135 155 168 162 157 134 151 143 152 150 149 166 196 110 144 151 163 179 172 170 170 170 181 185 188 191 192 194 193 198 195 197 194 195 194 196 195 199 198
147 127 132 146 157 158 128 142 136 144 149 155 159 165 163 170 164 176 158 164 160 170 180 166 168 170 181 184 188 192 194 195 195 192 197 196 195 196 197 197 199 198 199 200
144 152 156 156 149 141 138 148 144 152 149 147 155 167 167 162 131 148 155 154 161 167 169 157 170 175 185 190 193 196 196 197 191 197 195 198 198 197 198 198 198 199 204 203
109 116 123 107 117 132 146 150 145 161 168 161 148 169 164 159 146 152 153 153 160 167 158 161 170 182 187 191 196 198 197 197 195 194 196 198 199 200 199 199 200 200 202 203